Home > Weather > St. Croix Falls > Past weeks

Flag for USA Weather for the Past 2 Weeks in St. Croix Falls, Wisconsin, USA

Now
41 °F

Clear.


Feels Like: 41 °F
Forecast: 37 / 74 °F
Wind: No wind

Location: L O Simenstad Municipal Airport

Current Time: May 5, 2016 at 1:52:10 AM

Latest Report: May 5, 2016 at 1:15 AM


Visibility: 10 mi

Pressure: 30.03 "Hg

Humidity: 71%

Dew Point: 33 °F

Location of St. Croix FallsLocation

Historic Weather in St. Croix Falls — Graph

°F

St. Croix Falls Temperature Yesterday

Maximum temperature yesterday: 65 °F (at 4:15 PM)
Minimum temperature yesterday: 41 °F (at 4:55 AM)
Average temperature yesterday: 54 °F

High & Low Weather Summary for the Past Weeks

 TemperatureHumidityPressure
High70 °F (May 3, 4:15 PM)100% (Apr 20, 2:15 AM)30.23 "Hg (Apr 20, 2:15 AM)
Low34 °F (May 2, 5:55 AM)18% (May 4, 5:35 PM)29.59 "Hg (Apr 25, 8:35 AM)
Average51 °F68%30.00 "Hg
* Reported Apr 20 12:15 AM — May 5 12:35 AM, St. Croix Falls, Weather by CustomWeather, © 2016

Note: Actual official high and low records may vary slightly from our data, if they occured in-between our weather recording intervals... More about our weather records

Advertising

St. Croix Falls Weather History for the Previous 24 Hours

Scroll right to see more
 ConditionsComfort  
Time TempWeatherWind HumidityBarometerVisibility
12:35 AM
Thu, May 5
41 °FClear.No wind66%30.02 "Hg10 mi
12:15 AM41 °FClear.No wind69%30.02 "Hg10 mi
11:55 PM
Wed, May 4
42 °FClear.No wind68%30.02 "Hg10 mi
11:35 PM43 °FClear.No wind62%30.02 "Hg10 mi
11:15 PM42 °FClear.No wind70%30.01 "Hg10 mi
10:55 PM44 °FClear.No wind61%30.01 "Hg10 mi
10:35 PM43 °FClear.3 mph61%30.01 "Hg10 mi
10:15 PM46 °FClear.No wind52%30.01 "Hg10 mi
9:55 PM46 °FClear.No wind53%30.01 "Hg4 mi
9:35 PM50 °FClear.No wind40%30.00 "Hg7 mi
9:15 PM55 °FSunny.No wind28%30.00 "Hg10 mi
8:55 PM56 °FSunny.3 mph28%29.99 "Hg10 mi
8:35 PM59 °FSunny.3 mph22%29.98 "Hg10 mi
8:15 PM59 °FSunny.3 mph22%29.97 "Hg10 mi
7:55 PM61 °FSunny.7 mph21%29.97 "Hg10 mi
7:35 PM62 °FSunny.6 mph20%29.97 "Hg10 mi
7:15 PM64 °FSunny.8 mph19%29.97 "Hg10 mi
6:55 PM64 °FSunny.8 mph19%29.97 "Hg10 mi
6:35 PM64 °FSunny.8 mph18%29.96 "Hg10 mi
6:15 PM65 °FSunny.12 mph19%29.96 "Hg10 mi
5:55 PM65 °FSunny.9 mph19%29.96 "Hg10 mi
5:35 PM65 °FSunny.9 mph18%29.96 "Hg10 mi
5:15 PM65 °FSunny.13 mph19%29.96 "Hg10 mi
4:55 PM65 °FSunny.13 mph20%29.96 "Hg10 mi
4:15 PM65 °FSunny.12 mph19%29.95 "Hg10 mi
3:55 PM65 °FSunny.10 mph20%29.95 "Hg10 mi
3:35 PM65 °FSunny.12 mph19%29.96 "Hg10 mi
3:15 PM65 °FSunny.10 mph22%29.96 "Hg10 mi
2:55 PM64 °FSunny.10 mph22%29.96 "Hg10 mi
2:15 PM63 °FSunny.12 mph26%29.96 "Hg10 mi
1:55 PM63 °FSunny.10 mph27%29.96 "Hg10 mi
1:35 PM63 °FSunny.16 mph29%29.96 "Hg10 mi
1:15 PM62 °FSunny.13 mph31%29.97 "Hg10 mi
12:55 PM61 °FSunny.13 mph33%29.98 "Hg10 mi
12:35 PM60 °FSunny.12 mph34%29.98 "Hg10 mi
12:15 PM60 °FSunny.14 mph35%29.99 "Hg10 mi
11:55 AM58 °FSunny.12 mph37%29.99 "Hg10 mi
11:35 AM58 °FScattered clouds.13 mph39%29.99 "Hg10 mi
11:15 AM56 °FScattered clouds.13 mph40%29.99 "Hg10 mi
10:55 AM56 °FScattered clouds.18 mph41%29.99 "Hg10 mi
10:15 AM56 °FPartly sunny.16 mph44%30.00 "Hg10 mi
9:55 AM54 °FOvercast.8 mph46%30.00 "Hg10 mi
9:35 AM53 °FPartly sunny.7 mph51%30.01 "Hg10 mi
9:15 AM52 °FSunny.6 mph52%30.01 "Hg10 mi
8:55 AM50 °FSunny.9 mph55%30.01 "Hg10 mi
8:35 AM49 °FSunny.9 mph55%30.01 "Hg10 mi
8:15 AM48 °FSunny.8 mph58%30.00 "Hg10 mi
7:55 AM47 °FSunny.6 mph62%30.00 "Hg10 mi
7:15 AM44 °FSunny.No wind67%29.99 "Hg10 mi
6:55 AM43 °FSunny.No wind70%29.98 "Hg10 mi
6:35 AM42 °FClear.3 mph70%29.97 "Hg10 mi
6:15 AM42 °FClear.No wind72%29.97 "Hg10 mi
5:55 AM42 °FClear.5 mph72%29.96 "Hg10 mi
5:15 AM42 °FClear.3 mph71%29.96 "Hg10 mi
4:55 AM41 °FClear.3 mph72%29.95 "Hg10 mi
4:35 AM44 °FClear.3 mph66%29.95 "Hg10 mi
4:15 AM42 °FClear.No wind69%29.95 "Hg10 mi
3:55 AM44 °FClear.No wind64%29.94 "Hg10 mi
3:35 AM47 °FClear.No wind56%29.94 "Hg10 mi
3:15 AM47 °FClear.6 mph57%29.93 "Hg10 mi
2:55 AM48 °FClear.6 mph56%29.93 "Hg10 mi
2:35 AM49 °FClear.6 mph54%29.92 "Hg10 mi
2:15 AM49 °FClear.8 mph54%29.91 "Hg10 mi
1:55 AM50 °FClear.8 mph51%29.91 "Hg10 mi
1:15 AM52 °FClear.15 mph47%29.89 "Hg10 mi
Weather by CustomWeather, © 2016

See weather overviewHow to use our weather pages